Weather in Suhum

Abkhazia     43°00′13″N   41°01′08″E
temp.,
°C
wind,
m/s
gust,
m/s
humid.,
%
clouds,
%
prec.,
mm/h
press.,
hPa
HPBL,
m
26 october, tue
tue2600:00+6ne33714 0.0 1030104
03:00+6ne33653 0.0 1030118
06:00+5ne33632 0.0 1030136
09:00+9e23480 0.0 1030276
12:00+12sse22470 0.0 1029889
15:00+12sw11510 0.0 1027732
18:00+9n22650 0.0 1027186
21:00+8nne22650 0.0 102776
27 october, wed
wed2700:00+8nne32580 0.0 102780
03:00+8nne22520 0.0 102665
06:00+8ne22490 0.0 102568
09:00+11ese11420 0.0 1025148
12:00+14wsw22420 0.0 1024397
15:00+14w22480 0.0 1022339
18:00+11n22650 0.0 1023148
21:00+10nne22670 0.0 102355
28 october, thu
thu2800:00+10ne22630 0.0 102468
03:00+9ne22600 0.0 102594
06:00+9nne22590 0.0 102579
09:00+12e11510 0.0 1026193
12:00+14ssw11540 0.0 1025627
15:00+13wsw22635 0.0 1024477
18:00+11nnw2278100 0.0 1025226
21:00+11nne2277100 0.0 102592
29 october, fri
fri2900:00+10ne2276100 0.0 102581
03:00+11ne227091 0.1 1025121
06:00+11ene226681 0.0 1025158
09:00+13ese116050 0.0 1026305
12:00+14s225943 0.0 1025927
15:00+14wsw116413 0.0 1025705
18:00+11n22767 0.0 1026149
21:00+10nne22794 0.0 102775
30 october, sat
sat3000:00+10ne22785 0.0 102776
03:00+9ne22733 0.0 102784
06:00+9ne22730 0.0 102790
09:00+12ese11650 0.0 1028259
12:00+14ssw21634 0.0 1027730
15:00+14sw116714 0.0 1027605
18:00+11n22780 0.0 1028106
21:00+11nne22670 0.0 102871